Location: Northcutt
(34.7304°N, 84.4305°W)
Time: 09:46:02
(UTC+00:00)

A-11 Canister half - Pass Details

Date: 10 October 2022
Orbit: 1524 x 1685 km, 47.3° (Epoch: 30 November)

Event Time Altitude Azimuth Distance (km) Brightness Sun altitude
Rises 16:31:54 0° 199° (SSW) 4,723 12.1 46.6°
Reaches altitude 10° 16:35:22 10° 190° (S) 3,722 11.8 46.9°
Maximum altitude 16:43:26 34° 130° (SE) 2,332 11.2 47.3°
Drops below altitude 10° 16:51:24 10° 70° (ENE) 3,689 11.1 47.7°
Sets 16:54:47 0° 61° (ENE) 4,676 11.4 47.9°
